Météo Nord-Pas-de-Calais   La météo au plus près de chez vous

Station météorologique

Observations météo à Bernay (27056)

27056003 166 m Dernier relevé à 06:30
12.6°C
Humidité 96 % Vent 7.9 km/h

Journée consultée

Samedi 5 Septembre 2026

Synthèse de la journée

Périodes de référence en UTC

Température maximale

23.5°C

à 16:00

06h 06h

Température minimale

12.6°C

à 06:30

18h 18h

Rafale maximale

23 km/h

à 02:06

00h 00h

Précipitations

2 mm

Cumul quotidien

06h 06h

Ensoleillement

0h 0 mins

Durée quotidienne

00h 00h

Graphiques de la journée

Heure locale Réduire

Données détaillées

Relevés météo

Pas de 6 minutes Afficher les relevés infra-horaires
Relevés météo détaillés à Bernay pour le Samedi 5 Septembre 2026
Heure Température °C Point de rosée °C Humidité % Vent moyen (raf.), km/h Précipitations mm Ensoleillement min Rayonnement global W/m²
06:30 12.6 °C 12.3 °C 98 % 6 km/h (10 km/h) 0 mm0 mm 0 min 0 W/m²
06:24 12.7 °C 12.4 °C 98 % 8 km/h (11 km/h) 0 mm0 mm 0 min 0 W/m²
06:18 12.8 °C 12.3 °C 97 % 9 km/h (13 km/h) 0 mm0 mm 0 min 0 W/m²
06:12 12.9 °C 12.6 °C 98 % 9 km/h (12 km/h) 0 mm0 mm 0 min 0 W/m²
06:06 12.8 °C 12.3 °C 97 % 8 km/h (12 km/h) 0 mm0 mm 0 min 0 W/m²
06:00 12.9 °C 12.4 °C 97 % 8 km/h (11 km/h) 0 mm0 mm 0 min 0 W/m²
05:54 13 °C 12.5 °C 97 % 8 km/h (11 km/h) 0 mm0 mm 0 min 0 W/m²
05:48 13.1 °C 12.6 °C 97 % 7 km/h (10 km/h) 0 mm0 mm 0 min 0 W/m²
05:42 13.1 °C 12.5 °C 96 % 6 km/h (12 km/h) 0 mm0 mm 0 min 0 W/m²
05:36 13.3 °C 12.7 °C 96 % 7 km/h (11 km/h) 0 mm0 mm 0 min 0 W/m²
05:30 13.4 °C 12.8 °C 96 % 8 km/h (12 km/h) 0 mm0 mm 0 min 0 W/m²
05:24 13.5 °C 12.7 °C 95 % 9 km/h (13 km/h) 0 mm0 mm 0 min 0 W/m²
05:18 13.6 °C 12.8 °C 95 % 9 km/h (13 km/h) 0 mm0 mm 0 min 0 W/m²
05:12 13.6 °C 12.8 °C 95 % 9 km/h (14 km/h) 0 mm0 mm 0 min 0 W/m²
05:06 13.6 °C 13 °C 96 % 8 km/h (14 km/h) 0 mm0 mm 0 min 0 W/m²
05:00 13.6 °C 13 °C 96 % 8 km/h (14 km/h) 0 mm0 mm 0 min 0 W/m²
04:54 13.6 °C 12.8 °C 95 % 8 km/h (14 km/h) 0 mm0 mm 0 min 0 W/m²
04:48 13.7 °C 13.1 °C 96 % 8 km/h (13 km/h) 0 mm0 mm 0 min 0 W/m²
04:42 13.7 °C 13.1 °C 96 % 6 km/h (10 km/h) 0 mm0 mm 0 min 0 W/m²
04:36 13.7 °C 13.1 °C 96 % 6 km/h (10 km/h) 0 mm0 mm 0 min 0 W/m²
04:30 13.8 °C 13 °C 95 % 8 km/h (11 km/h) 0 mm0 mm 0 min 0 W/m²
04:24 13.9 °C 13.1 °C 95 % 7 km/h (10 km/h) 0 mm0 mm 0 min 0 W/m²
04:18 14 °C 13 °C 94 % 6 km/h (9 km/h) 0 mm0 mm 0 min 0 W/m²
04:12 14.2 °C 13.2 °C 94 % 6 km/h (9 km/h) 0 mm0 mm 0 min 0 W/m²
04:06 14.3 °C 13.3 °C 94 % 6 km/h (9 km/h) 0 mm0 mm 0 min 0 W/m²
04:00 14.3 °C 13.3 °C 94 % 6 km/h (10 km/h) 0 mm0 mm 0 min 0 W/m²
03:54 14.5 °C 13.4 °C 93 % 7 km/h (11 km/h) 0 mm0 mm 0 min 0 W/m²
03:48 14.6 °C 13.3 °C 92 % 6 km/h (10 km/h) 0 mm0 mm 0 min 0 W/m²
03:42 14.9 °C 13.4 °C 91 % 6 km/h (12 km/h) 0 mm0 mm 0 min 0 W/m²
03:36 15.1 °C 13.5 °C 90 % 8 km/h (12 km/h) 0 mm0 mm 0 min 0 W/m²
03:30 15.2 °C 13.6 °C 90 % 9 km/h (15 km/h) 0 mm0 mm 0 min 0 W/m²
03:24 15.2 °C 13.7 °C 91 % 11 km/h (17 km/h) 0 mm0 mm 0 min 0 W/m²
03:18 15.2 °C 13.7 °C 91 % 12 km/h (18 km/h) 0 mm0 mm 0 min 0 W/m²
03:12 15.2 °C 13.7 °C 91 % 12 km/h (18 km/h) 0 mm0 mm 0 min 0 W/m²
03:06 15.3 °C 13.8 °C 91 % 10 km/h (14 km/h) 0 mm0 mm 0 min 0 W/m²
03:00 15.3 °C 13.8 °C 91 % 8 km/h (13 km/h) 0 mm0 mm 0 min 0 W/m²
02:54 15.4 °C 13.9 °C 91 % 10 km/h (16 km/h) 0 mm0 mm 0 min 0 W/m²
02:48 15.4 °C 13.8 °C 90 % 12 km/h (16 km/h) 0 mm0 mm 0 min 0 W/m²
02:42 15.4 °C 13.9 °C 91 % 12 km/h (18 km/h) 0 mm0 mm 0 min 0 W/m²
02:36 15.5 °C 13.9 °C 90 % 12 km/h (19 km/h) 0 mm0 mm 0 min 0 W/m²
02:30 15.5 °C 14 °C 91 % 13 km/h (21 km/h) 0 mm0 mm 0 min 0 W/m²
02:24 15.5 °C 14 °C 91 % 13 km/h (22 km/h) 0 mm0 mm 0 min 0 W/m²
02:18 15.6 °C 14.1 °C 91 % 12 km/h (22 km/h) 0 mm0 mm 0 min 0 W/m²
02:12 15.6 °C 14.1 °C 91 % 12 km/h (23 km/h) 0 mm0 mm 0 min 0 W/m²
02:06 15.6 °C 14.1 °C 91 % 12 km/h (23 km/h) 0 mm0 mm 0 min 0 W/m²
02:00 15.7 °C 14.2 °C 91 % 11 km/h (20 km/h) 0 mm0 mm 0 min 0 W/m²
01:54 15.8 °C 14.3 °C 91 % 12 km/h (20 km/h) 0 mm0 mm 0 min 0 W/m²
01:48 15.8 °C 14.3 °C 91 % 12 km/h (20 km/h) 0 mm0 mm 0 min 0 W/m²
01:42 15.9 °C 14.4 °C 91 % 13 km/h (20 km/h) 0 mm0 mm 0 min 0 W/m²
01:36 16 °C 14.5 °C 91 % 10 km/h (20 km/h) 0 mm0 mm 0 min 0 W/m²
01:30 16 °C 15 °C 94 % 9 km/h (15 km/h) 0 mm0 mm 0 min 0 W/m²
01:24 16.1 °C 15.3 °C 95 % 8 km/h (15 km/h) 0 mm0 mm 0 min 0 W/m²
01:18 16.2 °C 15.4 °C 95 % 9 km/h (19 km/h) 0 mm0 mm 0 min 0 W/m²
01:12 16.2 °C 15.2 °C 94 % 11 km/h (19 km/h) 0 mm0 mm 0 min 0 W/m²
01:06 16.3 °C 15.2 °C 93 % 10 km/h (19 km/h) 0 mm0 mm 0 min 0 W/m²
01:00 16.3 °C 15.3 °C 94 % 10 km/h (17 km/h) 0 mm0 mm 0 min 0 W/m²
00:54 16.4 °C 15.3 °C 93 % 11 km/h (17 km/h) 0 mm0 mm 0 min 0 W/m²
00:48 16.5 °C 15.2 °C 92 % 11 km/h (17 km/h) 0 mm0 mm 0 min 0 W/m²
00:42 16.6 °C 15.1 °C 91 % 13 km/h (20 km/h) 0 mm0 mm 0 min 0 W/m²
00:36 16.7 °C 15.1 °C 90 % 14 km/h (21 km/h) 0 mm0 mm 0 min 0 W/m²
00:30 16.8 °C 15.3 °C 91 % 12 km/h (21 km/h) 0 mm0 mm 0 min 0 W/m²
00:24 16.9 °C 15.8 °C 93 % 12 km/h (19 km/h) 0 mm0 mm 0 min 0 W/m²
00:18 17 °C 15.9 °C 93 % 13 km/h (20 km/h) 0 mm0 mm 0 min 0 W/m²
00:12 17 °C 16 °C 94 % 10 km/h (19 km/h) 0 mm0 mm 0 W/m²
00:06 17.1 °C 16.1 °C 94 % 10 km/h (17 km/h) 0 mm0 mm 0 min 0 W/m²
00:00 17.1 °C 16.3 °C 95 % 10 km/h (16 km/h) 0 mm0 mm 0 min 0 W/m²

Données via Météo-France

Relevés météo à Bernay

Cette page rassemble les observations de la station de Bernay : température, humidité, vent, précipitations et pression atmosphérique. Les graphiques facilitent le suivi de la journée, tandis que le tableau donne accès aux mesures horaires et infra-horaires disponibles.

Pour replacer ces mesures dans leur contexte, consultez la climatologie de Bernay ainsi que ses normales et records. Retrouvez aussi la carte des observations météo en temps réel.